[[{"header":{"parameterUnit":"m.s-1","parameterCategory":1,"la1":30.2991,"la2":30.254,"lo1":-89.0895,"lo2":-89.0444,"dy":0.0017,"dx":0.0017,"nx":28,"ny":28,"refTime":"2025-02-26T09:00:00:Z","depth":0,"parameterNumber":2,"parameterNumberName":"U-component_of_WINDS"},"data":[0,0,0,0,0,0,0,0,0,0,0,0,0,0,0,0,0,0,0,0,0,0,0,0,0,0,0,0,0,0,0,0,0,0,0,0,0,0,0,0,0,0,0,0,0,0,0,0,0,0,0,0,0,0,0,0,0,0,1.2909,1.2909,0,1.2884,1.2883,1.2883,1.2866,1.2866,1.2866,1.2866,1.2838,1.2837,1.2837,0,0,0,0,0,0,0,0,0,0,0,0,0,1.2943,1.2942,1.2909,1.2909,1.2909,1.2884,1.2883,1.2883,1.2866,1.2866,1.2866,1.2866,1.2838,1.2837,1.2837,0,0,0,0,0,0,0,0,0,0,0,0,0,1.2924,1.2942,1.2909,1.2897,1.2896,1.2884,1.2883,1.2883,1.2866,1.2866,1.2866,1.2866,1.2838,1.2838,1.2837,1.2834,0,0,1.2834,1.2833,0,0,0,0,0,0,0,0,1.2925,1.2922,1.2899,1.2898,1.2897,1.2878,1.2885,1.2866,1.2866,1.2877,1.2866,1.2866,1.2851,1.2849,1.2845,1.2832,1.2831,1.2834,1.2833,1.2833,1.2832,0,0,0,0,0,0,0,1.2926,1.2923,1.2899,1.2899,1.2897,1.2893,1.289,1.2881,1.2866,1.2876,1.2875,1.2872,1.2851,1.2846,1.2844,1.2831,1.2834,1.2833,1.2832,1.2832,1.2814,1.2814,0,0,0,0,0,0,1.2929,1.2925,1.29,1.2898,1.2911,1.2892,1.2889,1.2884,1.2866,1.2863,1.2873,1.2872,1.2847,1.2845,1.2843,1.2838,1.2833,1.2832,1.2831,1.2814,1.2814,1.2815,0,0,0,0,0,0,1.293,1.2927,1.2901,1.2911,1.2907,1.2892,1.2886,1.2884,1.2879,1.2863,1.286,1.2871,1.2847,1.2844,1.2836,1.2837,1.2831,1.283,1.2814,1.2814,1.2814,1.2828,0,0,0,0,0,0,1.2931,1.2928,1.2927,1.2911,1.2907,1.2895,1.2886,1.2883,1.2877,1.2876,1.286,1.2857,1.2847,1.2838,1.2835,1.2835,1.283,1.2814,1.2814,1.2814,1.2828,1.2829,1.283,0,0,0,0,0,1.2932,1.2932,1.2927,1.2924,1.2906,1.2895,1.2893,1.2881,1.2878,1.2876,1.2866,1.2858,1.2837,1.2837,1.2834,1.2834,1.2814,1.2814,1.2814,1.2827,1.2829,1.283,0,0,0,0,0,0,1.2947,1.2929,1.2924,1.2918,1.2908,1.2892,1.289,1.2883,1.2874,1.2873,1.2859,1.2855,1.2848,1.284,1.284,1.283,1.2825,1.2824,1.2835,1.2837,1.2838,1.284,1.2829,0,0,0,0,0,1.295,1.2943,1.2928,1.2924,1.292,1.2906,1.2901,1.2893,1.2882,1.2878,1.2867,1.2856,1.2847,1.2842,1.2832,1.2827,1.2823,1.2825,1.2826,1.2827,1.2827,1.2823,1.2824,1.2815,1.2815,1.2815,0,0,1.2955,1.2944,1.2941,1.2927,1.2918,1.2911,1.2903,1.2896,1.289,1.2877,1.2868,1.286,1.2847,1.284,1.2836,1.2833,1.2829,1.2828,1.2829,1.2828,1.2823,1.2824,1.2825,1.2816,1.2816,1.2816,0,0,1.2961,1.2953,1.2948,1.294,1.2928,1.2918,1.2918,1.2903,1.2897,1.2888,1.2878,1.2871,1.2856,1.2847,1.2841,1.2843,1.2835,1.2841,1.2847,1.2843,1.2843,1.2844,1.2844,1.2845,1.2841,1.2841,1.2841,0,1.2969,1.2958,1.2947,1.2941,1.2934,1.2922,1.2918,1.291,1.2895,1.2891,1.2888,1.2869,1.2859,1.285,1.285,1.2846,1.2844,1.2842,1.2844,1.2845,1.2845,1.2845,1.2846,1.2841,1.2841,1.2841,1.2841,0,1.2968,1.2961,1.2959,1.2946,1.2939,1.2934,1.2921,1.2916,1.2909,1.29,1.2891,1.2879,1.2868,1.2865,1.2857,1.2854,1.2853,1.2847,1.2841,1.2847,1.2847,1.2847,1.2842,1.2842,1.2842,1.2842,0,0,1.2982,1.2963,1.2962,1.2955,1.2941,1.2935,1.2929,1.2918,1.2913,1.2904,1.2898,1.2885,1.288,1.2873,1.2864,1.2861,1.2864,1.2856,1.2855,1.2857,1.2859,1.2862,1.2863,1.2858,1.2858,1.2858,1.286,0,1.2985,1.2974,1.2964,1.2956,1.2949,1.2938,1.2933,1.2923,1.2914,1.2907,1.2897,1.2889,1.2883,1.2878,1.2875,1.2864,1.2863,1.2864,1.2852,1.2852,1.2855,1.2863,1.2867,1.2869,1.286,1.2859,1.2859,0,1.2988,1.2979,1.2971,1.2957,1.2953,1.2949,1.2938,1.2931,1.2919,1.2913,1.2905,1.2897,1.2889,1.2884,1.2874,1.2874,1.2869,1.2863,1.2863,1.286,1.2856,1.2861,1.2869,1.2869,1.2859,1.2859,1.2859,0,1.2998,1.2984,1.2977,1.2972,1.2956,1.2953,1.2945,1.2934,1.2928,1.2918,1.2914,1.2903,1.2897,1.2889,1.2877,1.2875,1.2867,1.2862,1.2862,1.2862,1.286,1.286,1.2867,1.2858,1.2858,1.2858,1.2858,0,1.3002,1.2997,1.2981,1.2977,1.2972,1.296,1.2954,1.2946,1.2936,1.2929,1.2919,1.2913,1.2898,1.289,1.2881,1.2873,1.2871,1.2865,1.2863,1.2866,1.2866,1.2862,1.2861,1.2858,1.2858,1.2858,1.2858,0,1.3012,1.3002,1.2993,1.2979,1.2975,1.2971,1.2958,1.2954,1.2945,1.2937,1.2934,1.292,1.291,1.2898,1.2884,1.2878,1.2871,1.2868,1.2875,1.2874,1.2874,1.2874,1.2877,1.2877,1.2868,1.2868,1.2869,0,1.3016,1.3012,1.2997,1.2992,1.2986,1.2978,1.2972,1.296,1.2954,1.2941,1.2937,1.2927,1.2918,1.2903,1.2891,1.288,1.2876,1.2878,1.2874,1.2877,1.2875,1.2876,1.2875,1.2879,1.2879,1.2879,1.2879,0,1.3022,1.3017,1.3009,1.2999,1.2992,1.2984,1.2975,1.2971,1.2957,1.2951,1.2941,1.2935,1.2921,1.291,1.2898,1.289,1.2882,1.2881,1.288,1.2883,1.2887,1.2884,1.2877,1.288,1.288,1.288,1.288,1.288,1.3029,1.3025,1.3014,1.3005,1.2997,1.2989,1.2984,1.2974,1.2966,1.2954,1.2948,1.2938,1.2926,1.2909,1.2902,1.2893,1.289,1.2889,1.2889,1.2889,1.289,1.2889,1.2891,1.2891,1.2891,1.2891,1.2891,0,1.3034,1.3027,1.3019,1.3007,1.3,1.2994,1.2984,1.2978,1.297,1.296,1.2951,1.294,1.293,1.2917,1.2906,1.2902,1.2898,1.2899,1.2899,1.2898,1.2893,1.2895,1.2903,1.2903,1.2903,1.2903,1.2903,1.2903,1.3036,1.3029,1.3023,1.3011,1.3004,1.2995,1.2989,1.2981,1.2973,1.2961,1.2953,1.2945,1.2934,1.2922,1.2912,1.2909,1.2905,1.2908,1.2903,1.2899,1.2898,1.2897,1.2898,1.2907,1.2907,1.2908,1.2908,1.2908]},{"header":{"parameterUnit":"m.s-1","parameterCategory":1,"la1":30.2991,"la2":30.254,"lo1":-89.0895,"lo2":-89.0444,"dy":0.0017,"dx":0.0017,"nx":28,"ny":28,"refTime":"2025-02-26T09:00:00:Z","depth":0,"parameterNumber":3,"parameterNumberName":"V-component_of_WINDS"},"data":[0,0,0,0,0,0,0,0,0,0,0,0,0,0,0,0,0,0,0,0,0,0,0,0,0,0,0,0,0,0,0,0,0,0,0,0,0,0,0,0,0,0,0,0,0,0,0,0,0,0,0,0,0,0,0,0,0,0,-2.6752,-2.6752,0,-2.6803,-2.6804,-2.6804,-2.6787,-2.6786,-2.6784,-2.6783,-2.6835,-2.6837,-2.684,0,0,0,0,0,0,0,0,0,0,0,0,0,-2.6639,-2.6641,-2.6752,-2.6752,-2.6753,-2.6803,-2.6804,-2.6804,-2.6787,-2.6786,-2.6784,-2.6783,-2.6834,-2.6837,-2.684,0,0,0,0,0,0,0,0,0,0,0,0,0,-2.6689,-2.6642,-2.6752,-2.675,-2.6751,-2.6803,-2.6804,-2.6805,-2.6787,-2.6785,-2.6784,-2.6782,-2.6833,-2.6837,-2.684,-2.6897,0,0,-2.6851,-2.6853,0,0,0,0,0,0,0,0,-2.6686,-2.6693,-2.675,-2.675,-2.6751,-2.6787,-2.6783,-2.6835,-2.6788,-2.6773,-2.6783,-2.6781,-2.682,-2.6825,-2.6838,-2.6899,-2.6901,-2.6852,-2.6854,-2.6856,-2.6857,0,0,0,0,0,0,0,-2.6683,-2.6691,-2.6772,-2.6751,-2.6751,-2.6747,-2.6753,-2.6793,-2.6806,-2.6774,-2.6773,-2.678,-2.682,-2.6835,-2.6839,-2.6902,-2.6852,-2.6855,-2.6857,-2.6859,-2.7013,-2.7015,0,0,0,0,0,0,-2.6679,-2.6688,-2.677,-2.6774,-2.6714,-2.6751,-2.6757,-2.6777,-2.6805,-2.6808,-2.6781,-2.6779,-2.6829,-2.6835,-2.6841,-2.691,-2.6855,-2.6859,-2.6861,-2.7011,-2.7014,-2.7016,0,0,0,0,0,0,-2.6677,-2.6686,-2.6768,-2.6731,-2.6741,-2.6754,-2.6778,-2.6779,-2.6793,-2.681,-2.6812,-2.6793,-2.6828,-2.6836,-2.6883,-2.6912,-2.6861,-2.6864,-2.7009,-2.7012,-2.7015,-2.7048,0,0,0,0,0,0,-2.6673,-2.6686,-2.6707,-2.6731,-2.6743,-2.681,-2.6779,-2.6781,-2.68,-2.6797,-2.6822,-2.6825,-2.6827,-2.6878,-2.6887,-2.6916,-2.6867,-2.7007,-2.701,-2.7014,-2.7044,-2.7051,-2.7058,0,0,0,0,0,-2.6669,-2.6714,-2.6708,-2.6718,-2.677,-2.6811,-2.6818,-2.682,-2.6802,-2.6824,-2.6835,-2.6824,-2.6907,-2.6883,-2.6893,-2.6923,-2.7005,-2.7009,-2.7014,-2.7041,-2.705,-2.7057,0,0,0,0,0,0,-2.6692,-2.6717,-2.6711,-2.6764,-2.6786,-2.6808,-2.6836,-2.6829,-2.6857,-2.6853,-2.6854,-2.686,-2.691,-2.6921,-2.6894,-2.698,-2.6953,-2.696,-2.6971,-2.6979,-2.6986,-2.6982,-2.687,0,0,0,0,0,-2.6703,-2.6735,-2.6755,-2.68,-2.6811,-2.6822,-2.684,-2.684,-2.6863,-2.6872,-2.6886,-2.6908,-2.6939,-2.696,-2.6989,-2.7046,-2.7052,-2.7071,-2.7078,-2.7083,-2.7089,-2.7122,-2.7131,-2.703,-2.703,-2.703,0,0,-2.6726,-2.6744,-2.6764,-2.6805,-2.6822,-2.6855,-2.683,-2.6866,-2.6891,-2.6877,-2.6923,-2.6935,-2.6959,-2.7012,-2.7036,-2.7023,-2.7118,-2.7089,-2.7093,-2.7096,-2.7127,-2.7137,-2.7145,-2.7033,-2.7032,-2.7032,0,0,-2.6786,-2.6802,-2.6842,-2.686,-2.6886,-2.6893,-2.6903,-2.6927,-2.6935,-2.6981,-2.6972,-2.7002,-2.7055,-2.7073,-2.709,-2.7159,-2.715,-2.7168,-2.7203,-2.7235,-2.7243,-2.725,-2.7276,-2.7285,-2.7174,-2.7174,-2.7174,0,-2.6812,-2.6862,-2.6864,-2.6901,-2.692,-2.691,-2.6951,-2.6968,-2.7003,-2.7016,-2.7001,-2.7069,-2.7085,-2.7143,-2.716,-2.7173,-2.7185,-2.7165,-2.7241,-2.7249,-2.7255,-2.728,-2.729,-2.7176,-2.7176,-2.7175,-2.7175,0,-2.6893,-2.6928,-2.6957,-2.6992,-2.7014,-2.7053,-2.7061,-2.7084,-2.7082,-2.7091,-2.7139,-2.7158,-2.7192,-2.7205,-2.7204,-2.7263,-2.7255,-2.7241,-2.7214,-2.7267,-2.729,-2.73,-2.7179,-2.7178,-2.7177,-2.7177,0,0,-2.6968,-2.7004,-2.7015,-2.7031,-2.706,-2.7087,-2.7126,-2.716,-2.718,-2.7204,-2.7238,-2.7284,-2.7271,-2.729,-2.729,-2.7318,-2.7373,-2.7301,-2.7301,-2.7315,-2.7442,-2.7453,-2.7464,-2.7368,-2.7369,-2.7371,-2.744,0,-2.7031,-2.71,-2.7104,-2.7167,-2.72,-2.7192,-2.7226,-2.7248,-2.7257,-2.7287,-2.7297,-2.733,-2.731,-2.7322,-2.7349,-2.7361,-2.7399,-2.7356,-2.7399,-2.7401,-2.7395,-2.7476,-2.7488,-2.7553,-2.7449,-2.7451,-2.7452,0,-2.7114,-2.7142,-2.7209,-2.7235,-2.7249,-2.7279,-2.7312,-2.734,-2.7365,-2.737,-2.7392,-2.7388,-2.7429,-2.7401,-2.7457,-2.7428,-2.7446,-2.7455,-2.7457,-2.7462,-2.743,-2.7485,-2.7574,-2.7584,-2.7466,-2.7465,-2.7464,0,-2.7164,-2.7218,-2.7266,-2.728,-2.731,-2.7333,-2.7346,-2.737,-2.739,-2.7418,-2.7432,-2.7464,-2.7482,-2.7507,-2.7513,-2.7491,-2.757,-2.7542,-2.7576,-2.7576,-2.7594,-2.7593,-2.7688,-2.7604,-2.7603,-2.7603,-2.7603,0,-2.7235,-2.7277,-2.7289,-2.7318,-2.7365,-2.7368,-2.7415,-2.7427,-2.7448,-2.748,-2.7474,-2.7504,-2.7509,-2.7541,-2.7545,-2.7593,-2.76,-2.7606,-2.7607,-2.7607,-2.7607,-2.762,-2.7616,-2.7606,-2.7605,-2.7605,-2.7604,0,-2.7299,-2.7309,-2.736,-2.7385,-2.7393,-2.7426,-2.7448,-2.7477,-2.7486,-2.7526,-2.7536,-2.755,-2.7587,-2.7595,-2.7639,-2.7642,-2.7698,-2.7694,-2.769,-2.7691,-2.7725,-2.7722,-2.7833,-2.7849,-2.7753,-2.7753,-2.7754,0,-2.7344,-2.7376,-2.7405,-2.7427,-2.7442,-2.7476,-2.7497,-2.7503,-2.7525,-2.7557,-2.7582,-2.7618,-2.7647,-2.7707,-2.7721,-2.7755,-2.7752,-2.7789,-2.7757,-2.7757,-2.7755,-2.7753,-2.7757,-2.7795,-2.7796,-2.7797,-2.7797,0,-2.7424,-2.7427,-2.7459,-2.7493,-2.7519,-2.7545,-2.757,-2.7588,-2.7597,-2.7623,-2.7661,-2.7684,-2.7729,-2.7766,-2.78,-2.7814,-2.7808,-2.7807,-2.7817,-2.7819,-2.7816,-2.7819,-2.7708,-2.7805,-2.7804,-2.7804,-2.7803,-2.7803,-2.7481,-2.7509,-2.7535,-2.7571,-2.7591,-2.7615,-2.7643,-2.7657,-2.7689,-2.7726,-2.7727,-2.7769,-2.7794,-2.784,-2.7856,-2.7889,-2.7878,-2.7892,-2.7896,-2.79,-2.7904,-2.781,-2.7895,-2.7895,-2.7895,-2.7895,-2.7894,0,-2.7561,-2.7578,-2.7611,-2.7647,-2.7675,-2.7667,-2.7695,-2.772,-2.7757,-2.7781,-2.7811,-2.7855,-2.7891,-2.7909,-2.7944,-2.7968,-2.7966,-2.7977,-2.7976,-2.798,-2.7911,-2.7899,-2.7978,-2.7978,-2.7978,-2.7978,-2.7978,-2.7978,-2.7607,-2.7656,-2.7663,-2.7721,-2.7737,-2.7779,-2.7796,-2.7819,-2.7838,-2.7889,-2.7919,-2.793,-2.7952,-2.799,-2.8023,-2.8027,-2.8041,-2.8054,-2.8057,-2.7993,-2.7984,-2.7976,-2.7965,-2.8056,-2.8057,-2.8123,-2.8124,-2.8124]}]]